Location: ???????
(55.5931°N, 39.3286°E)
Time: 05:30:40
(UTC+00:00)

Cosmos 1470 Rocket - Pass Details

Date: 14 April 2024
Orbit: 601 x 629 km, 82.5° (Epoch: 22 May)

Event Time Altitude Azimuth Distance (km) Brightness Sun altitude
Rises 01:15:11 0° 348° (NNW) 2,889 7.3 -9.1°
Reaches altitude 10° 01:17:24 10° 348° (NNW) 1,984 6.4 -8.8°
Maximum altitude 01:21:48 88° 78° (ENE) 625 3.6 -8.3°
Drops below altitude 10° 01:26:13 10° 169° (SSE) 1,986 6.0 -7.8°
Sets 01:28:26 0° 169° (S) 2,892 6.8 -7.5°
